Starlink 5303

operational
NORAD ID: 55630 Int'l Des: 2023-021 Owner: SPXS Country: US Constellation: starlink
LEOCIRCULAR

关于 Starlink 5303

正在加载描述...

实时位置

正在加载3D地球...

即将过境

高度历史

Altitude vs Time

uPlot chart will show altitude changes over time

两行轨道根数

1 55630U 23021C 26034.68827828 .00003947 00000-0 33837-3 0 9991
2 55630 69.9992 290.2468 0002566 273.2502 86.8363 14.98338829163207
Epoch: Feb 3, 2026 • Age: 23 hours

当前状态

高度 574.1 km
速度 7.57 km/s
星下点 8.98°N, 94.1°E
发射日期 Feb 17, 2023
运行时间 2.9 years
类型 internet

技术详情

分类 Payload
质量 305.00 kg
干质量 290.00 kg
总质量 305.00 kg
长度 0.20 m
直径 2.80 m
跨度 9.00 m
形状 Box + pan
制造商 SPXS
平台类型 Starlink
阶段状态 In Orbit
所有者/国家 SPXS/US

大型星座

Loading constellations...